EW2142 Weather Reports


Display with metric or nautical units.
time (UTC)temp
F
wind
direction
speed
MPH
gust
MPH
rain 1hr
in
rain 24hr
in
rain mn
in
humidity
%
barometer
mb
20260902125503 68 315 0.0 2.0 0.00 0.01 0.01 60 1010.4
20260902125003 69 314 1.0 5.0 0.00 0.01 0.01 60 1010.4
20260902124503 69 314 1.0 5.0 0.00 0.01 0.01 58 1010.4
20260902124003 69 301 0.0 1.0 0.00 0.01 0.01 60 1010.4
20260902123503 69 297 0.0 3.0 0.00 0.01 0.01 58 1010.4
20260902123024 69 297 1.0 3.0 0.00 0.01 0.01 55 1010.4
20260902122503 69 296 0.0 3.0 0.00 0.01 0.01 57 1010.5
20260902122003 69 303 1.0 6.0 0.00 0.01 0.01 57 1010.5
20260902121502 68 290 0.0 6.0 0.00 0.01 0.01 59 1010.6
20260902121003 68 302 1.0 4.0 0.00 0.01 0.01 58 1010.6
20260902120524 68 318 1.0 4.0 0.00 0.01 0.01 61 1010.5
20260902120003 68 314 0.0 3.0 0.00 0.01 0.01 59 1010.6
20260902115503 68 305 0.0 3.0 0.00 0.01 0.01 57 1010.7
20260902115003 68 309 0.0 2.0 0.00 0.01 0.01 57 1010.6
20260902114503 67 295 0.0 3.0 0.00 0.01 0.01 60 1010.6
20260902114024 66 309 1.0 4.0 0.00 0.01 0.01 59 1010.6
20260902113503 66 309 0.0 4.0 0.00 0.01 0.01 57 1010.8
20260902113023 66 304 0.0 3.0 0.00 0.01 0.01 59 1010.8
20260902112503 66 308 0.0 3.0 0.00 0.01 0.01 56 1010.8
20260902112003 66 323 0.0 4.0 0.00 0.01 0.01 58 1010.8
20260902111502 66 312 1.0 4.0 0.00 0.01 0.01 55 1010.8
20260902111024 66 306 0.0 4.0 0.00 0.01 0.01 53 1010.9
20260902110503 66 313 0.0 1.0 0.00 0.01 0.01 58 1010.8
20260902110005 66 78 0.0 2.0 0.00 0.01 0.01 59 1010.8
20260902105503 66 320 0.0 3.0 0.00 0.01 0.01 61 1010.9
20260902105024 66 306 0.0 3.0 0.00 0.01 0.01 59 1010.9
20260902104504 66 299 0.0 3.0 0.00 0.01 0.01 61 1010.8
20260902104003 65 289 0.0 2.0 0.00 0.01 0.01 58 1010.9
20260902103502 66 298 0.0 2.0 0.00 0.01 0.01 59 1010.9
20260902103003 66 312 0.0 2.0 0.00 0.01 0.01 59 1010.9
20260902102503 66 305 1.0 6.0 0.00 0.01 0.01 59 1010.9
20260902102002 66 297 1.0 6.0 0.00 0.01 0.01 59 1010.8
20260902101503 66 290 0.0 6.0 0.00 0.01 0.01 58 1010.9
20260902101003 66 305 1.0 6.0 0.00 0.01 0.01 59 1010.8
20260902100503 66 291 0.0 3.0 0.00 0.01 0.01 60 1010.9
20260902100003 66 262 0.0 2.0 0.00 0.01 0.01 59 1010.9
20260902095503 66 313 0.0 5.0 0.00 0.01 0.01 60 1010.9
20260902095003 65 301 0.0 5.0 0.00 0.01 0.01 62 1011.0
20260902094503 65 310 1.0 5.0 0.00 0.01 0.01 60 1011.0
20260902094023 65 326 1.0 5.0 0.00 0.01 0.01 60 1010.9
20260902093503 66 286 0.0 2.0 0.00 0.01 0.01 61 1010.9
20260902093003 66 289 0.0 4.0 0.00 0.01 0.01 60 1010.9
20260902092503 66 289 1.0 5.0 0.00 0.01 0.01 60 1011.0
20260902092003 65 286 0.0 5.0 0.00 0.01 0.01 59 1010.9
20260902091503 66 306 1.0 7.0 0.00 0.01 0.01 61 1010.8
20260902091003 66 305 0.0 7.0 0.00 0.01 0.01 61 1010.8
20260902090525 66 297 0.0 4.0 0.00 0.01 0.01 60 1010.8
20260902090003 65 311 1.0 5.0 0.00 0.01 0.01 62 1010.7
20260902085503 65 297 1.0 5.0 0.00 0.01 0.01 61 1010.7
20260902085003 65 218 0.0 3.0 0.00 0.01 0.01 60 1010.8
20260902084503 64 307 1.0 6.0 0.00 0.01 0.01 61 1010.7
20260902084024 64 305 1.0 6.0 0.00 0.01 0.01 61 1010.7
20260902083503 64 300 1.0 6.0 0.00 0.01 0.01 62 1010.6
20260902083003 64 295 1.0 4.0 0.00 0.01 0.01 61 1010.6
20260902082503 64 294 0.0 4.0 0.00 0.01 0.01 62 1010.7
20260902082003 65 297 0.0 3.0 0.00 0.01 0.01 62 1010.5
20260902081503 65 302 0.0 3.0 0.00 0.01 0.01 61 1010.5
20260902081024 64 323 0.0 6.0 0.00 0.01 0.01 61 1010.5
20260902080503 64 312 0.0 6.0 0.00 0.01 0.01 57 1010.4
20260902080003 64 308 0.0 4.0 0.00 0.01 0.01 56 1010.4
20260902075503 64 272 0.0 2.0 0.00 0.01 0.01 56 1010.4
20260902075003 64 264 0.0 3.0 0.00 0.01 0.01 50 1010.4
20260902074503 63 272 0.0 3.0 0.00 0.01 0.01 49 1010.3
20260902074003 63 303 1.0 7.0 0.00 0.01 0.01 34 1010.3
20260902073503 62 304 1.0 7.0 0.00 0.01 0.01 33 1010.2
20260902073024 61 289 0.0 3.0 0.00 0.01 0.01 16 1010.1
20260902072503 60 286 0.0 5.0 0.00 0.01 0.01 4 1010.1
20260902072002 60 278 1.0 5.0 0.00 0.01 0.01 4 1010.1
20260902071503 60 293 1.0 3.0 0.00 0.01 0.01 1 1010.0
20260902071003 60 292 1.0 3.0 0.00 0.01 0.01 1 1010.0
20260902070503 60 278 0.0 3.0 0.00 0.01 0.01 1 1010.0
20260902070003 60 287 0.0 4.0 0.00 0.01 0.01 1 1009.9
20260902065524 60 288 0.0 4.0 0.00 0.01 0.01 1 1009.8
20260902065003 60 313 0.0 2.0 0.00 0.01 0.01 1 1009.9
20260902064503 60 301 0.0 1.0 0.00 0.01 0.01 1 1009.8
20260902064003 60 292 0.0 2.0 0.00 0.01 0.01 1 1009.8
20260902063523 60 312 0.0 4.0 0.00 0.01 0.01 1 1009.8
20260902063003 60 293 0.0 4.0 0.00 0.01 0.01 1 1009.8
20260902062523 59 259 0.0 4.0 0.00 0.01 0.01 1 1009.8
20260902062003 59 237 0.0 4.0 0.00 0.01 0.01 1 1009.7
20260902061545 59 253 0.0 4.0 0.00 0.01 0.01 1 1009.7
20260902061024 59 0 0.0 0.0 0.00 0.01 0.01 1 1009.7
20260902060503 58 0 0.0 1.0 0.00 0.01 0.01 1 1009.8
20260902060003 58 0 0.0 1.0 0.00 0.01 0.01 1 1009.7
20260902055503 58 0 0.0 1.0 0.00 0.01 0.01 1 1009.7
20260902055003 58 0 0.0 1.0 0.00 0.01 0.01 1 1009.7
20260902054503 58 0 0.0 1.0 0.00 0.01 0.01 1 1009.7
20260902054003 58 0 0.0 1.0 0.00 0.01 0.01 1 1009.7
20260902053502 58 0 0.0 1.0 0.00 0.01 0.01 1 1009.6
20260902053003 58 0 0.0 1.0 0.00 0.01 0.01 1 1009.6
20260902052503 58 0 0.0 1.0 0.00 0.01 0.01 1 1009.7
20260902052002 58 0 0.0 1.0 0.00 0.01 0.01 1 1009.7
20260902051503 58 0 0.0 1.0 0.00 0.01 0.01 1 1009.7
20260902051003 58 0 0.0 1.0 0.00 0.01 0.01 1 1009.6
20260902050503 58 0 0.0 1.0 0.00 0.01 0.01 1 1009.6
20260902050005 58 0 0.0 1.0 0.00 0.01 0.01 1 1009.7
20260902045503 58 0 0.0 1.0 0.01 0.01 0.01 1 1009.6
20260902045024 58 0 0.0 1.0 0.01 0.01 0.01 1 1009.6
20260902044524 58 0 0.0 1.0 0.01 0.01 0.01 1 1009.6
20260902044003 58 0 0.0 1.0 0.01 0.01 0.01 1 1009.6
20260902043502 58 0 0.0 1.0 0.01 0.01 0.01 1 1009.5
20260902043003 58 0 0.0 1.0 0.01 0.01 0.01 1 1009.4
20260902042502 58 0 0.0 1.0 0.01 0.01 0.01 1 1009.5
20260902042003 58 0 0.0 1.0 0.01 0.01 0.01 1 1009.5
20260902041503 58 0 0.0 1.0 0.01 0.01 0.01 1 1009.6
20260902041002 58 298 0.0 1.0 0.01 0.01 0.01 1 1009.6
20260902040503 58 298 0.0 1.0 0.01 0.01 0.01 1 1009.6
20260902040024 58 258 0.0 1.0 0.01 0.01 0.01 1 1009.6
20260902035503 58 243 0.0 1.0 0.00 0.00 0.00 1 1009.6
20260902035003 58 236 0.0 1.0 0.00 0.00 0.00 1 1009.7
20260902034503 58 236 0.0 1.0 0.00 0.00 0.00 1 1009.7
20260902034003 58 0 0.0 0.0 0.00 0.00 0.00 1 1009.7
20260902033503 58 0 0.0 0.0 0.00 0.00 0.00 1 1009.7
20260902033003 58 0 0.0 0.0 0.00 0.00 0.00 1 1009.7
20260902032524 58 0 0.0 0.0 0.00 0.00 0.00 1 1009.7
20260902032003 58 0 0.0 0.0 0.00 0.00 0.00 1 1009.7
20260902031503 58 0 0.0 0.0 0.00 0.00 0.00 1 1009.8
20260902031003 58 0 0.0 0.0 0.00 0.00 0.00 1 1009.8
20260902030503 58 0 0.0 0.0 0.00 0.00 0.00 1 1009.9
20260902030003 58 0 0.0 0.0 0.00 0.00 0.00 1 1009.9
20260902025524 58 148 0.0 1.0 0.00 0.00 0.00 1 1010.0
20260902025024 58 148 0.0 1.0 0.00 0.00 0.00 1 1010.0
20260902024503 58 0 0.0 0.0 0.00 0.00 0.00 1 1010.0
20260902024003 58 0 0.0 0.0 0.00 0.00 0.00 1 1010.0
20260902023503 58 0 0.0 0.0 0.00 0.00 0.00 1 1010.1
20260902023003 58 0 0.0 0.0 0.00 0.00 0.00 1 1010.2
20260902022502 58 0 0.0 0.0 0.00 0.00 0.00 1 1010.1
20260902022003 58 0 0.0 0.0 0.00 0.00 0.00 1 1010.2
20260902021503 58 0 0.0 0.0 0.00 0.00 0.00 1 1010.3
20260902021003 58 0 0.0 0.0 0.00 0.00 0.00 1 1010.3
20260902020503 58 0 0.0 0.0 0.00 0.00 0.00 1 1010.3
20260902020003 58 0 0.0 0.0 0.00 0.00 0.00 1 1010.3
20260902015503 58 0 0.0 0.0 0.00 0.00 0.00 1 1010.2
20260902015003 58 123 0.0 1.0 0.00 0.00 0.00 1 1010.3
20260902014524 58 123 0.0 1.0 0.00 0.00 0.00 1 1010.4
20260902014003 58 0 0.0 0.0 0.00 0.00 0.00 1 1010.4
20260902013503 58 0 0.0 0.0 0.00 0.00 0.00 1 1010.5
20260902013024 58 123 0.0 1.0 0.00 0.00 0.00 1 1010.5
20260902012503 58 123 0.0 1.0 0.00 0.00 0.00 1 1010.6
20260902012003 58 0 0.0 0.0 0.00 0.00 0.00 1 1010.5
20260902011503 58 0 0.0 0.0 0.00 0.00 0.00 1 1010.6
20260902011024 58 0 0.0 0.0 0.00 0.00 0.00 1 1010.6
20260902010503 58 0 0.0 0.0 0.00 0.00 0.00 1 1010.7
20260902010003 58 0 0.0 0.0 0.00 0.00 0.00 1 1010.7
20260902005503 58 0 0.0 0.0 0.00 0.00 0.00 1 1010.8
20260902005024 58 0 0.0 0.0 0.00 0.00 0.00 1 1010.7
20260902004503 58 0 0.0 0.0 0.00 0.00 0.00 1 1010.8
20260902004003 58 103 0.0 1.0 0.00 0.00 0.00 1 1010.8
20260902003524 58 103 0.0 1.0 0.00 0.00 0.00 1 1010.9
20260902003002 58 153 0.0 1.0 0.00 0.00 0.00 1 1010.9
20260902002524 58 153 0.0 1.0 0.00 0.00 0.00 1 1010.9
20260902002023 58 0 0.0 0.0 0.00 0.00 0.00 1 1010.9
20260902001502 57 0 0.0 0.0 0.00 0.03 0.00 1 1010.9
20260902001003 57 155 0.0 1.0 0.00 0.04 0.00 1 1011.0
20260902000524 57 155 0.0 1.0 0.00 0.07 0.00 1 1011.0
20260902000003 57 0 0.0 0.0 0.00 0.13 0.00 1 1011.0
20260901235503 57 0 0.0 0.0 0.00 0.13 0.00 1 1011.0
20260901235003 57 0 0.0 0.0 0.00 0.13 0.00 1 1011.0
20260901234503 57 251 0.0 1.0 0.00 0.13 0.00 1 1010.9
20260901234003 57 251 0.0 1.0 0.00 0.13 0.00 1 1011.0
20260901233503 57 0 0.0 0.0 0.00 0.13 0.00 1 1011.0
20260901233002 57 0 0.0 0.0 0.00 0.13 0.00 1 1011.1
20260901232503 57 178 0.0 1.0 0.00 0.13 0.00 1 1011.1
20260901232003 57 161 0.0 1.0 0.00 0.13 0.00 2 1011.1
20260901231502 57 120 0.0 1.0 0.00 0.13 0.00 3 1011.1
20260901231003 57 0 0.0 1.0 0.00 0.13 0.00 3 1011.1
20260901230503 57 112 0.0 1.0 0.00 0.13 0.00 4 1011.1
20260901230004 57 112 0.0 1.0 0.00 0.13 0.00 8 1011.1
20260901225524 57 245 0.0 1.0 0.00 0.13 0.00 11 1011.1
20260901225003 58 263 0.0 3.0 0.00 0.13 0.00 14 1011.0
20260901224503 58 251 0.0 3.0 0.00 0.13 0.00 15 1011.0
20260901224003 58 271 0.0 3.0 0.00 0.13 0.00 14 1011.0
20260901223503 58 296 0.0 3.0 0.00 0.13 0.00 17 1011.0
20260901223002 58 145 0.0 3.0 0.00 0.13 0.00 15 1011.1
20260901222503 58 260 0.0 3.0 0.00 0.13 0.00 15 1011.1
20260901222002 58 293 0.0 3.0 0.00 0.13 0.00 13 1011.1
20260901221503 58 323 0.0 3.0 0.00 0.13 0.00 6 1011.1
20260901221002 58 330 0.0 3.0 0.00 0.13 0.00 4 1011.1
20260901220503 58 114 0.0 1.0 0.00 0.13 0.00 1 1011.1
20260901220004 58 117 0.0 2.0 0.00 0.13 0.00 1 1011.1
20260901215503 58 140 0.0 2.0 0.00 0.13 0.13 1 1011.1
20260901215024 58 257 0.0 1.0 0.00 0.13 0.13 1 1011.1
20260901214503 58 254 0.0 1.0 0.00 0.13 0.13 1 1011.0
20260901214003 58 0 0.0 1.0 0.00 0.13 0.13 2 1011.0
20260901213503 58 0 0.0 0.0 0.00 0.13 0.13 3 1011.0
20260901213003 58 268 0.0 1.0 0.00 0.13 0.13 3 1010.9
20260901212503 58 285 0.0 1.0 0.00 0.13 0.13 3 1010.9
20260901212002 58 291 0.0 1.0 0.00 0.13 0.13 6 1010.8
20260901211503 59 291 0.0 1.0 0.00 0.13 0.13 5 1010.8
20260901211024 59 329 0.0 2.0 0.00 0.13 0.13 2 1010.8
20260901210503 59 304 0.0 2.0 0.00 0.13 0.13 5 1010.8
20260901210003 59 308 0.0 2.0 0.00 0.13 0.13 4 1010.8
20260901205503 59 319 0.0 2.0 0.00 0.13 0.13 4 1010.8
20260901205003 59 288 0.0 1.0 0.00 0.13 0.13 3 1010.8
20260901204503 59 70 0.0 1.0 0.00 0.13 0.13 1 1010.7
20260901204003 59 120 0.0 1.0 0.00 0.13 0.13 1 1010.7
20260901203503 59 269 0.0 1.0 0.00 0.13 0.13 1 1010.7
20260901203003 59 42 0.0 4.0 0.00 0.13 0.13 1 1010.7
20260901202524 59 70 0.0 4.0 0.00 0.13 0.13 2 1010.7
20260901202024 59 119 0.0 2.0 0.00 0.13 0.13 2 1010.6
20260901201503 59 101 0.0 3.0 0.00 0.13 0.13 1 1010.7
20260901201003 59 279 0.0 3.0 0.00 0.13 0.13 1 1010.7
20260901200524 59 117 0.0 2.0 0.00 0.13 0.13 1 1010.6
20260901200003 59 349 0.0 1.0 0.00 0.13 0.13 1 1010.6
20260901195503 59 356 0.0 1.0 0.00 0.13 0.13 1 1010.6
20260901195003 59 331 0.0 1.0 0.00 0.13 0.13 1 1010.6
20260901194503 59 322 0.0 1.0 0.00 0.13 0.13 1 1010.6
20260901194024 59 139 0.0 1.0 0.00 0.13 0.13 1 1010.5
20260901193503 59 139 0.0 1.0 0.00 0.13 0.13 1 1010.5
20260901193003 59 214 0.0 1.0 0.00 0.13 0.13 1 1010.5
20260901192523 59 261 0.0 1.0 0.00 0.13 0.13 1 1010.4
20260901192003 60 207 0.0 1.0 0.00 0.13 0.13 1 1010.4
20260901191503 60 323 0.0 1.0 0.00 0.13 0.13 1 1010.5
20260901191023 60 313 0.0 1.0 0.00 0.13 0.13 1 1010.4
20260901190503 60 285 0.0 1.0 0.00 0.13 0.13 1 1010.4
20260901190003 59 165 0.0 1.0 0.00 0.13 0.13 1 1010.5
20260901185503 59 193 0.0 1.0 0.00 0.13 0.13 1 1010.5
20260901185003 60 136 0.0 1.0 0.00 0.13 0.13 1 1010.4
20260901184503 60 4 0.0 1.0 0.00 0.13 0.13 1 1010.4
20260901184003 60 347 0.0 1.0 0.00 0.13 0.13 1 1010.4
20260901183503 60 347 0.0 2.0 0.00 0.13 0.13 1 1010.4
20260901183003 60 321 0.0 3.0 0.00 0.13 0.13 1 1010.4
20260901182503 60 303 0.0 3.0 0.00 0.13 0.13 1 1010.4
20260901182003 60 312 0.0 2.0 0.00 0.13 0.13 1 1010.4
20260901181502 60 282 0.0 2.0 0.00 0.13 0.13 1 1010.3
20260901181024 60 298 0.0 7.0 0.00 0.13 0.13 1 1010.3
20260901180503 60 309 0.0 7.0 0.00 0.13 0.13 3 1010.3
20260901180024 60 301 0.0 1.0 0.00 0.13 0.13 3 1010.3
20260901175503 60 307 0.0 1.0 0.00 0.13 0.13 7 1010.2
20260901175003 60 0 0.0 0.0 0.00 0.13 0.13 7 1010.2
20260901174503 61 114 0.0 1.0 0.00 0.13 0.13 10 1010.2
20260901174003 61 114 0.0 1.0 0.00 0.13 0.13 12 1010.2
20260901173503 61 319 0.0 2.0 0.00 0.13 0.13 13 1010.2
20260901173003 61 317 0.0 2.0 0.00 0.13 0.13 13 1010.2
20260901172502 61 324 0.0 2.0 0.00 0.13 0.13 12 1010.1
20260901172003 61 325 0.0 4.0 0.00 0.13 0.13 12 1010.1
20260901171503 61 325 0.0 4.0 0.00 0.14 0.13 10 1010.1
20260901171003 61 0 0.0 0.0 0.00 0.15 0.13 5 1010.1
20260901170503 61 0 0.0 0.0 0.00 0.16 0.13 9 1010.1
20260901170003 61 137 0.0 1.0 0.00 0.17 0.13 9 1010.0
20260901165503 62 112 0.0 2.0 0.00 0.17 0.13 13 1010.0
20260901165003 62 82 0.0 2.0 0.00 0.17 0.13 16 1009.9
20260901164503 62 317 0.0 1.0 0.00 0.18 0.13 18 1010.0
20260901164024 62 0 0.0 0.0 0.00 0.20 0.13 21 1009.9
20260901163524 62 303 0.0 1.0 0.00 0.21 0.13 27 1009.9
20260901163003 63 349 0.0 1.0 0.00 0.23 0.13 34 1009.9
20260901162524 63 355 0.0 1.0 0.00 0.25 0.13 36 1009.9
20260901162024 63 286 0.0 2.0 0.00 0.27 0.13 36 1009.9
20260901161503 64 297 0.0 5.0 0.00 0.29 0.13 38 1009.9
20260901161003 64 302 0.0 5.0 0.00 0.30 0.13 38 1009.8
20260901160503 64 305 0.0 3.0 0.00 0.31 0.13 36 1009.8
20260901160003 64 306 0.0 3.0 0.00 0.31 0.13 44 1009.7
20260901155503 65 304 0.0 3.0 0.00 0.31 0.13 40 1009.6
20260901155003 64 311 0.0 7.0 0.00 0.31 0.13 29 1009.6
20260901154503 65 314 0.0 7.0 0.00 0.31 0.13 37 1009.5
20260901154003 65 321 0.0 5.0 0.00 0.31 0.13 40 1009.5
20260901153503 66 319 0.0 3.0 0.00 0.31 0.13 46 1009.5
20260901153003 66 311 0.0 3.0 0.00 0.31 0.13 50 1009.5
20260901152503 66 311 0.0 5.0 0.00 0.31 0.13 44 1009.5
20260901152003 66 309 0.0 5.0 0.00 0.31 0.13 51 1009.5
20260901151502 66 288 0.0 3.0 0.00 0.31 0.13 48 1009.4
20260901151003 67 285 0.0 3.0 0.00 0.31 0.13 53 1009.5
20260901150503 67 288 0.0 4.0 0.00 0.31 0.13 55 1009.4
20260901150003 68 303 0.0 4.0 0.00 0.31 0.13 57 1009.4
20260901145503 68 320 0.0 2.0 0.00 0.31 0.13 54 1009.5
20260901145003 68 240 0.0 2.0 0.00 0.31 0.13 53 1009.4
20260901144503 68 289 0.0 3.0 0.00 0.31 0.13 55 1009.4
20260901144003 67 302 0.0 3.0 0.00 0.31 0.13 53 1009.4
20260901143503 67 314 0.0 9.0 0.00 0.31 0.13 56 1009.4
20260901143003 67 324 0.0 9.0 0.00 0.33 0.13 53 1009.4
20260901142503 67 321 0.0 3.0 0.00 0.35 0.13 52 1009.4
20260901142002 67 317 0.0 3.0 0.00 0.36 0.13 49 1009.3
20260901141502 67 256 0.0 1.0 0.00 0.39 0.13 50 1009.3
20260901141003 67 313 0.0 3.0 0.00 0.41 0.13 48 1009.3
20260901140503 67 314 0.0 3.0 0.00 0.43 0.13 54 1009.3
20260901140003 67 319 0.0 3.0 0.00 0.44 0.13 47 1009.3
20260901135503 67 317 0.0 3.0 0.00 0.44 0.13 47 1009.3
20260901135024 67 231 0.0 1.0 0.00 0.44 0.13 46 1009.4
20260901134503 67 129 0.0 1.0 0.00 0.44 0.13 47 1009.4
20260901134003 67 264 0.0 3.0 0.00 0.44 0.13 49 1009.4
20260901133503 67 267 0.0 3.0 0.00 0.44 0.13 54 1009.4
20260901133003 68 288 0.0 1.0 0.00 0.44 0.13 47 1009.4
20260901132524 68 287 0.0 1.0 0.00 0.44 0.13 47 1009.3
20260901132002 68 300 0.0 1.0 0.00 0.44 0.13 55 1009.3
20260901131503 68 316 0.0 1.0 0.00 0.44 0.13 54 1009.4
20260901131003 68 306 0.0 2.0 0.00 0.44 0.13 50 1009.4
20260901130502 68 303 0.0 2.0 0.00 0.44 0.13 53 1009.4
20260901130003 68 274 0.0 1.0 0.00 0.44 0.13 52 1009.4